Flag for U.S.A. Weather past 2 weeks in Helena, Montana, U.S.A.

Now
61 °F

Overcast.


Feels Like: 61 °F
Forecast: 37 / 61 °F
Wind: 8 mph from North

Location: Helena Regional Airport


UV Index: 0 (Low)

Visibility: 10 mi


Pressure: 29.82 "Hg

Humidity: 27%

Dew point: 27 °F

Location of HelenaLocation

Historic Weather in Helena

°F

Helena temperature yesterday

Maximum temperature yesterday: 52 °F (at 2:53 PM)
Minimum temperature yesterday: 36 °F (at 6:53 AM)
Average temperature yesterday: 44 °F

Past Weeks' High & Low Weather Summary

 TemperatureHumidityPressure
High72 °F (Apr 8, 3:53 PM)93% (Apr 12, 10:01 AM)30.48 "Hg (Apr 12, 10:01 AM)
Low20 °F (Apr 14, 6:53 AM)11% (Apr 14, 4:53 PM)29.73 "Hg (Apr 11, 5:53 PM)
Average45 °F45%30.03 "Hg
* Reported Apr 2 2:53 PM — Apr 17 2:53 PM, Helena, Weather by CustomWeather, © 2014

Note: Actual official high and low records may vary slightly from our data, if they occured in-between our weather recording intervals... More about our weather records

Advertising

Historic Weather Conditions — Data for Previous 24 hours

 ConditionsComfort  
Time TempWeatherWind HumidityBarometerVisibility
2:53 PM
Apr 17
61 °FOvercast.8 mph27%29.82 "Hg10 mi
1:53 PM59 °FOvercast.5 mph28%29.83 "Hg10 mi
12:53 PM56 °FPartly sunny.No wind33%29.87 "Hg10 mi
11:53 AM53 °FSunny.No wind39%29.90 "Hg10 mi
10:53 AM49 °FSunny.No wind46%29.94 "Hg10 mi
9:53 AM45 °FSunny.3 mph51%29.96 "Hg10 mi
8:53 AM40 °FSunny.No wind65%29.99 "Hg10 mi
7:53 AM38 °FPartly sunny.No wind68%29.99 "Hg10 mi
6:53 AM37 °FClear.No wind70%30.00 "Hg10 mi
5:53 AM39 °FClear.No wind62%29.99 "Hg10 mi
4:53 AM38 °FOvercast.No wind68%30.00 "Hg10 mi
3:53 AM38 °FOvercast.No wind68%30.01 "Hg10 mi
2:53 AM38 °FOvercast.No wind68%30.02 "Hg10 mi
1:53 AM39 °FOvercast.No wind62%30.03 "Hg10 mi
12:53 AM39 °FOvercast.No wind65%30.03 "Hg10 mi
11:53 PM
Apr 16
40 °FOvercast.No wind60%30.03 "Hg10 mi
10:53 PM41 °FPassing clouds.3 mph55%30.03 "Hg10 mi
9:53 PM42 °FPassing clouds.5 mph53%30.05 "Hg10 mi
8:53 PM44 °FPassing clouds.No wind51%30.04 "Hg10 mi
7:53 PM47 °FScattered clouds.6 mph42%30.04 "Hg10 mi
6:53 PM49 °FPartly sunny.9 mph39%30.03 "Hg10 mi
5:53 PM49 °FBroken clouds.13 mph36%30.02 "Hg10 mi
4:53 PM51 °FBroken clouds.16 mph31%30.00 "Hg10 mi
Weather by CustomWeather, © 2014

See weather overview